BAW575 LIML-EGLL

Flight info

Callsign BAW575
Flight time N/A
Altitude 38000
Route PEPAG DCT CANNE Z651 MANEG L613 HOC DCT MIRGU DCT EGOZE N57 ABB DCT ALESO
Aircraft A320/M-VGDW/C

Departure

Time 2026-04-30 13:57
Airport Milano Linate Airport (LIML)

Arrival

Time N/A
Airport London Heathrow Airport (EGLL)
Time Latitude Longitude Altitude Speed Heading
2026-04-30 13:17 45.45559 9.28071 367 ft 0 kts 90°
2026-04-30 13:48 45.45559 9.28072 367 ft 0 kts 90°
2026-04-30 13:49 45.45559 9.28073 367 ft 1 kts 90°
2026-04-30 13:49 45.45559 9.28090 367 ft 3 kts 90°
2026-04-30 13:49 45.45555 9.28128 367 ft 5 kts 118°
2026-04-30 13:49 45.45521 9.28153 367 ft 7 kts 177°
2026-04-30 13:50 45.45467 9.28150 367 ft 9 kts 185°
2026-04-30 13:50 45.45319 9.28105 367 ft 13 kts 209°
2026-04-30 13:50 45.45227 9.28052 367 ft 15 kts 193°
2026-04-30 13:51 45.45116 9.28052 367 ft 15 kts 175°
2026-04-30 13:51 45.45017 9.28064 367 ft 15 kts 177°
2026-04-30 13:51 45.44946 9.27998 367 ft 10 kts 245°
2026-04-30 13:51 45.44892 9.27930 367 ft 12 kts 187°
2026-04-30 13:52 45.44803 9.27938 367 ft 14 kts 174°
2026-04-30 13:52 45.44699 9.27953 367 ft 16 kts 173°
2026-04-30 13:52 45.44579 9.27967 367 ft 18 kts 176°
2026-04-30 13:52 45.44446 9.27986 367 ft 20 kts 173°
2026-04-30 13:53 45.44300 9.28002 367 ft 22 kts 175°
2026-04-30 13:53 45.44139 9.28018 367 ft 24 kts 175°
2026-04-30 13:53 45.43965 9.28040 367 ft 26 kts 175°
2026-04-30 13:53 45.43778 9.28053 367 ft 28 kts 174°
2026-04-30 13:54 45.43621 9.28070 367 ft 10 kts 176°
2026-04-30 13:54 45.43543 9.28077 367 ft 12 kts 176°
2026-04-30 13:54 45.43484 9.28081 367 ft 8 kts 183°
2026-04-30 13:54 45.43440 9.28031 367 ft 4 kts 257°
2026-04-30 13:55 45.43440 9.28005 367 ft 3 kts 268°
2026-04-30 13:55 45.43439 9.27988 367 ft 0 kts 268°
2026-04-30 13:55 45.43439 9.27974 367 ft 3 kts 268°
2026-04-30 13:55 45.43439 9.27970 367 ft 0 kts 268°
2026-04-30 13:56 45.43437 9.27939 367 ft 6 kts 266°
2026-04-30 13:56 45.43434 9.27866 367 ft 9 kts 266°
2026-04-30 13:56 45.43476 9.27813 367 ft 8 kts 356°
2026-04-30 13:56 45.43519 9.27810 367 ft 22 kts 356°
2026-04-30 13:57 45.43926 9.27768 368 ft 93 kts 356°
2026-04-30 13:57 45.44772 9.27675 368 ft 148 kts 355°
2026-04-30 13:57 45.45875 9.27533 742 ft 158 kts 358°
2026-04-30 13:57 45.46990 9.27379 1226 ft 167 kts 355°
2026-04-30 13:58 45.48142 9.26911 1742 ft 177 kts 339°
2026-04-30 13:58 45.50481 9.25398 2701 ft 198 kts 335°
2026-04-30 13:58 45.51780 9.24547 3127 ft 214 kts 340°
2026-04-30 13:59 45.53258 9.23908 3601 ft 230 kts 345°
2026-04-30 13:59 45.54847 9.23284 4155 ft 244 kts 343°
2026-04-30 13:59 45.56556 9.22812 4709 ft 259 kts
2026-04-30 13:59 45.58313 9.23494 5382 ft 267 kts 25°
2026-04-30 14:00 45.59983 9.24694 6191 ft 271 kts 26°
2026-04-30 14:00 45.63575 9.26237 7750 ft 278 kts 352°
2026-04-30 14:00 45.65362 9.25234 8500 ft 280 kts 323°
2026-04-30 14:01 45.66595 9.23142 9222 ft 283 kts 295°
2026-04-30 14:01 45.67243 9.20472 9976 ft 286 kts 290°
2026-04-30 14:01 45.68246 9.18024 10621 ft 291 kts 315°
2026-04-30 14:01 45.69960 9.16412 10982 ft 306 kts 341°
2026-04-30 14:02 45.72109 9.15961 11291 ft 321 kts 359°
2026-04-30 14:02 45.74395 9.15958 11638 ft 336 kts 358°
2026-04-30 14:02 45.76767 9.15627 11939 ft 350 kts 350°
2026-04-30 14:02 45.79173 9.14830 12410 ft 357 kts 345°
2026-04-30 14:03 45.81567 9.13802 13015 ft 361 kts 343°
2026-04-30 14:03 45.83968 9.12716 13617 ft 363 kts 343°
2026-04-30 14:03 45.86362 9.11674 14199 ft 366 kts 344°
2026-04-30 14:03 45.88680 9.10753 14738 ft 368 kts 346°
2026-04-30 14:04 45.91168 9.09841 15294 ft 370 kts 346°
2026-04-30 14:04 45.93675 9.08939 15837 ft 373 kts 346°
2026-04-30 14:04 45.96195 9.08005 16357 ft 376 kts 346°
2026-04-30 14:04 45.98745 9.07123 16874 ft 378 kts 351°
2026-04-30 14:05 46.01353 9.06586 17394 ft 380 kts 354°